Zwartkop Nite Race Series 2018/2019 - #4

10 km

NameGenderTimeOverall PositionGender PositionAverageNTS Index
Emmanuel HlopheMale00:36:53.31103:40/km0.00
Xander van der MerweMale00:41:26.32204:07/km0.00
Jeannie de BeerFemale00:41:34.63104:09/km0.00
Sandra MansvelderFemale00:41:58.14204:10/km0.00
Rizta FoucheFemale00:42:29.65304:13/km0.00
Cobus VisserMale00:42:48.16304:15/km0.00
Joseph MozotoMale00:42:48.27404:15/km0.00
Jean van NiekerkMale00:42:50.88504:16/km0.00
Ben VenterMale00:45:07.89604:30/km0.00
Raymond PhalanndwaMale00:46:11.310704:36/km0.00
Marjolein MansvelderFemale00:46:19.611404:36/km0.00
Louis AvenantMale00:46:27.412804:37/km0.00
Andries PieterseMale00:47:03.813904:42/km0.00
Anri VisserFemale00:48:28.914504:49/km0.00
Simone BohrFemale00:48:31.015604:51/km0.00
Janelle VersterFemale00:48:37.716704:51/km0.00
Charles Orsmond Male00:49:56.2171004:58/km0.00
Pieter HollanderMale00:49:59.6181104:58/km0.00
Pedro Loureiro LemaMale00:50:02.4191205:00/km0.00
Ruan VenterMale00:50:38.2201305:03/km0.00
Lizelle SchreuderFemale00:50:44.121805:03/km0.00
Bernhard Westra Male00:50:48.4221405:03/km0.00
Mario MatraiottiMale00:52:15.7231505:12/km0.00
Frikkie CoetzerMale00:52:18.4241605:12/km0.00
André van KasteropMale00:52:20.8251705:13/km0.00
SVEN-PETER LADEWIGMale00:53:40.3261805:21/km0.00
Annemarie LindeFemale00:54:30.927905:27/km0.00
Bernie JansenMale00:54:34.1281905:27/km0.00
Deon TaljaardMale00:54:36.3292005:27/km0.00
Reinier Posthumus-MeyjesMale00:54:44.1302105:27/km0.00
Ian van der MerweMale00:54:46.3312205:27/km0.00
Abdul MahomedMale00:54:48.7322305:27/km0.00
Alex MareeMale00:54:51.1332405:28/km0.00
Adri Van den heeverFemale00:54:53.3341005:28/km0.00
Diederick SteynMale00:54:55.6352505:28/km0.00
Manyama PhetoleMale00:54:57.4362605:28/km0.00
Natasha FourieFemale00:58:25.8371105:49/km0.00
Fanie RobbertseMale00:58:29.1382705:49/km0.00
Natalie KeoughFemale00:58:32.0391205:51/km0.00
Ofentse MolotoMale00:58:34.1402805:51/km0.00
Henk TaljaardMale00:58:37.6412905:51/km0.00
Sanet BrielFemale00:58:41.1421305:51/km0.00
Kobie JoosteFemale00:59:18.5431405:54/km0.00
Bertha MolotoFemale01:00:35.7441506:03/km0.00
Gerda GroenewaldFemale01:04:26.7451606:25/km0.00
Jacobus VermeulenMale01:04:30.8463006:27/km0.00
Adri PayneFemale01:04:33.7471706:27/km0.00
Rurik Sinovich Male01:04:36.3483106:27/km0.00
Mboya KwagatiFemale01:04:38.6491806:27/km0.00
Carla van der WaltFemale01:04:41.6501906:27/km0.00
Jacobus (Bert) du PlessisMale01:04:44.2513206:27/km0.00
Chantal KnoetzeFemale01:04:46.7522006:27/km0.00
Hugo RustMale01:05:32.8533306:33/km0.00
Atayanda Nazo NazoMale01:05:36.0543406:33/km0.00
BERNICE VAN DER MERWEFemale01:06:07.0552106:36/km0.00
Chris LittleMale01:06:40.1563506:39/km0.00
Leonie LootsFemale01:07:14.1572206:42/km0.00
Andrew PhokwaniMale01:07:18.8583606:42/km0.00
TERESA LE ROUX Female01:08:09.7592306:48/km0.00
Segomotso KelefetsweMale01:08:14.9603706:48/km0.00
Ruth PilaFemale01:09:01.9612406:54/km0.00
Jolandi LabuschagneFemale01:10:47.8622507:03/km0.00
Francois LabuschagneMale01:10:50.5633807:04/km0.00
Monique GerberFemale01:10:54.0642607:04/km0.00
Hein TempelMale01:10:56.0653907:04/km0.00
Ina du ToitFemale01:12:16.6662707:12/km0.00
Johan du ToitMale01:12:19.4674007:12/km0.00
Wilma Du PlooyFemale01:12:57.3682807:16/km0.00
Jacobus LootsMale01:13:21.9694107:19/km0.00
cindy pelserFemale01:13:54.2702907:22/km0.00
Ina BeamishFemale01:14:45.7713007:27/km0.00
Marie HayFemale01:18:16.1723107:48/km0.00
Meshank KekanaMale01:19:02.7734207:54/km0.00
Omphile MabuzaFemale01:19:04.8743207:54/km0.00
Qalo MasangoFemale01:20:09.4753308:00/km0.00
Maniki MoloiMale01:20:11.5764308:00/km0.00
Yonela MsiwaFemale01:20:14.9773408:00/km0.00